Погода в Большом Вьясе

Россия / Пензенская область     53°48′53″N   45°29′24″E
темп.,
°C
ветер,
м/с
пор.,
м/с
влажн.,
%
обл.,
%
осадки,
мм/ч
давл.,
гПа
погр.,
м
18 апреля, вс
вс1800:00+8юв2270100 0.0 102038
03:00+8в2475100 0.1 1019137
06:00+7вюв3774100 0.6 1019242
09:00+8юв2565100 1.5 1020386
12:00+8ссв2472100 4.1 1020305
15:00+9зсз347995 6.4 1020195
18:00+8юз1285100 0.3 102079
21:00+7с3487100 1.6 102092
19 апреля, пн
пн1900:00+7всв4978100 0.1 1021323
03:00+6всв71382100 0.5 1021520
06:00+4всв61383100 1.8 1021506
09:00+4всв61283100 2.3 1022580
12:00+8в8105998 0.1 10211043
15:00+9в6960100 0.2 10221390
18:00+7в71170100 0.6 1022955
21:00+5в71379100 0.6 1024855
20 апреля, вт
вт2000:00+5в61273100 0.0 1024765
03:00+4вюв61376100 0.0 1025818
06:00+4вюв71481100 0.0 1025755
09:00+5вюв71363100 0.0 1025837
12:00+8вюв8125265 0.0 10251155
15:00+11вюв8114873 0.0 10231375
18:00+8вюв81454100 0.0 10221180
21:00+7вюв91755100 0.0 1021986
21 апреля, ср
ср2100:00+6юв91854100 0.0 1020937
03:00+4юв102172100 1.0 1018908
06:00+3юв102184100 1.1 1017824
09:00+3юв91987100 3.1 1017865
12:00+3ююв91890100 0.2 1018848
15:00+3ююв81691100 0.5 1018707
18:00+4ююв71592100 0.0 1019633
21:00+3ююв61495100 0.3 1020551
22 апреля, чт
чт2200:00+4ююв41096100 0.2 1021396
03:00+4ююв3798100 0.2 1022296
06:00+4юв2698100 0.1 1023276
09:00+7ю3788100 0.1 1024355
12:00+11ю5772100 0.5 10241296
15:00+12юз466289 0.8 10241306
18:00+9ссз237481 0.2 1025117
21:00+8всв2277100 0.2 102619